Location: Hodgeman County Ambulance
(38.0844°N, 99.8949°W)
Time: 12:01:36
(UTC+00:00)

Tiangong - Pass Details

Date: 23 September 2021
Orbit: 382 x 385 km, 41.5° (Epoch: 18 October)

Event Time Altitude Azimuth Distance (km) Brightness Sun altitude
Exits shadow 11:29:08 - 196° (SSW) 1,974 4.4 -12.5°
Reaches altitude 10° 11:31:20 10° 170° (S) 1,386 3.9 -12.0°
Maximum altitude 11:32:44 12° 143° (SE) 1,253 4.0 -11.8°
Drops below altitude 10° 11:34:08 10° 117° (ESE) 1,390 4.8 -11.5°
Sets 11:37:07 0° 86° (E) 2,246 7.2 -10.9°
